Temp
-14 -15 -15 -15 -15 -14 -14 -14 -14 -14 -13 -13 -13 -13 -13 -13 -13 -13 -13 -14 -14 -14 -14 -14 -14 -13 -13 -13 -13 -13 -14 -14
-15 -15 -15 -15 -15 -14 -15 -14 -13 -13 -13 -13 -13 -13 -14 -13 -14 -14 -14 -14 -14 -13 -14 -14 -13 -13 -14 -13 -13 -14 -14 -14
-15 -15 -15 -15 -15 -15 -14 -14 -13 -13 -13 -13 -14 -14 -14 -14 -14 -14 -14 -14 -14 -14 -14 -14 -14 -14 -14 -14 -14 -14 -14 -14
-15 -15 -15 -15 -14 -14 -13 -13 -14 -13 -13 -14 -14 -14 -15 -15 -15 -14 -15 -15 -14 -14 -14 -14 -14 -15 -15 -15 -15 -15 -15 -15
-15 -15 -14 -14 -14 -14 -14 -15 -15 -14 -14 -14 -14 -15 -15 -15 -15 -15 -16 -15 -15 -14 -15 -15 -15 -15 -15 -16 -16 -16 -16 -16
-14 -14 -14 -15 -15 -15 -15 -15 -15 -15 -15 -15 -15 -15 -16 -16 -16 -16 -16 -15 -15 -15 -15 -15 -15 -15 -15 -16 -16 -16 -16 -16
-15 -15 -15 -15 -15 -15 -15 -15 -14 -15 -15 -16 -16 -16 -15 -15 -16 -17 -16 -16 -15 -16 -16 -16 -15 -15 -16 -16 -16 -16 -16 -16
-15 -15 -15 -15 -15 -15 -15 -15 -14 -15 -16 -17 -17 -17 -16 -15 -16 -17 -16 -16 -16 -16 -16 -16 -16 -16 -16 -16 -16 -16 -16 -16
-14 -15 -15 -15 -15 -15 -15 -15 -15 -15 -17 -17 -16 -17 -17 -17 -16 -16 -16 -16 -17 -17 -16 -17 -17 -16 -16 -16 -16 -16 -16 -16
-15 -15 -15 -15 -15 -15 -14 -15 -16 -17 -17 -17 -17 -17 -17 -17 -17 -16 -17 -17 -17 -17 -17 -17 -17 -17 -17 -17 -17 -16 -16 -16
-15 -15 -15 -15 -15 -15 -16 -17 -17 -16 -17 -16 -17 -17 -17 -17 -18 -18 -18 -18 -18 -18 -17 -17 -17 -17 -17 -17 -17 -17 -17 -16
-15 -15 -15 -15 -15 -15 -15 -15 -15 -16 -17 -17 -17 -17 -18 -18 -18 -18 -18 -18 -18 -17 -17 -17 -17 -17 -18 -18 -18 -18 -18 -18
-15 -16 -16 -16 -16 -16 -15 -15 -17 -17 -17 -17 -17 -18 -17 -17 -17 -17 -17 -17 -17 -17 -17 -18 -18 -18 -18 -18 -18 -18 -18 -18
-16 -16 -16 -16 -16 -16 -16 -17 -16 -16 -16 -16 -16 -17 -18 -18 -18 -18 -19 -19 -19 -19 -19 -19 -19 -19 -19 -19 -19 -19 -19 -19
-16 -16 -15 -15 -16 -16 -16 -16 -16 -17 -17 -18 -18 -19 -19 -19 -19 -19 -19 -19 -19 -19 -19 -19 -19 -19 -19 -19 -19 -19 -19 -19
-16 -15 -15 -16 -16 -16 -16 -17 -17 -18 -19 -19 -19 -19 -19 -19 -19 -19 -19 -19 -19 -19 -19 -19 -19 -19 -19 -19 -19 -19 -19 -19
-15 -15 -16 -16 -15 -15 -16 -17 -17 -17 -18 -18 -18 -19 -19 -19 -19 -19 -19 -19 -19 -19 -19 -19 -19 -20 -20 -20 -20 -20 -21 -21
-15 -15 -15 -15 -15 -16 -16 -17 -17 -17 -18 -18 -19 -19 -19 -19 -19 -19 -19 -19 -19 -19 -19 -19 -20 -20 -20 -21 -21 -22 -22 -23
-15 -15 -16 -16 -16 -16 -17 -17 -17 -17 -18 -18 -18 -19 -19 -19 -19 -19 -19 -19 -19 -19 -20 -20 -21 -21 -22 -22 -23 -24 -26 -28
-15 -16 -16 -16 -17 -17 -17 -17 -17 -18 -18 -18 -19 -19 -19 -19 -19 -19 -19 -20 -20 -21 -21 -21 -22 -22 -23 -24 -26 -28 -29 -30
Height
5821 5823 5825 5825 5826 5827 5827 5828 5829 5829 5830 5830 5831 5829 5827 5827 5826 5823 5823 5822 5820 5818 5816 5812 5811 5811 5809 5806 5804 5802 5800 5797
5820 5819 5821 5822 5823 5825 5826 5826 5826 5826 5827 5827 5825 5824 5823 5822 5820 5818 5818 5816 5815 5813 5810 5808 5807 5804 5802 5800 5799 5796 5792 5790
5817 5818 5819 5821 5823 5824 5825 5825 5824 5823 5822 5822 5821 5820 5818 5816 5814 5813 5812 5810 5809 5807 5805 5802 5801 5799 5797 5795 5792 5789 5786 5784
5817 5818 5820 5822 5822 5823 5824 5822 5821 5822 5822 5819 5817 5814 5811 5810 5809 5808 5806 5805 5803 5802 5800 5798 5795 5792 5790 5788 5785 5783 5781 5779
5818 5821 5822 5821 5821 5822 5822 5821 5821 5819 5818 5814 5813 5810 5807 5804 5803 5802 5800 5799 5797 5796 5794 5791 5789 5787 5784 5782 5780 5778 5776 5774
5818 5819 5819 5819 5820 5820 5819 5818 5817 5815 5812 5809 5808 5805 5802 5799 5798 5797 5794 5792 5790 5789 5787 5784 5782 5779 5777 5775 5774 5772 5770 5768
5818 5817 5817 5818 5818 5818 5816 5814 5812 5810 5806 5805 5803 5802 5797 5794 5792 5790 5790 5787 5784 5781 5778 5776 5773 5771 5769 5767 5766 5764 5763 5761
5816 5816 5816 5814 5815 5813 5811 5809 5806 5804 5801 5800 5797 5797 5795 5790 5785 5783 5782 5779 5776 5773 5770 5767 5765 5762 5760 5758 5756 5754 5753 5751
5814 5814 5814 5813 5811 5810 5808 5805 5802 5799 5794 5793 5790 5790 5787 5783 5778 5774 5771 5769 5766 5763 5760 5757 5754 5751 5749 5747 5745 5742 5740 5738
5812 5812 5810 5809 5808 5807 5803 5795 5793 5790 5789 5788 5785 5780 5777 5773 5769 5765 5762 5757 5755 5752 5749 5746 5743 5740 5738 5735 5732 5729 5727 5724
5810 5808 5807 5805 5804 5800 5794 5792 5786 5783 5779 5777 5774 5771 5766 5762 5758 5755 5751 5748 5745 5741 5738 5735 5731 5728 5725 5722 5719 5716 5712 5709
5805 5803 5803 5802 5799 5795 5790 5784 5779 5776 5773 5769 5765 5760 5756 5752 5748 5745 5741 5738 5734 5730 5726 5721 5718 5716 5712 5707 5702 5699 5695 5692
5802 5801 5798 5796 5793 5788 5784 5779 5775 5772 5768 5763 5759 5754 5750 5745 5740 5737 5733 5728 5723 5718 5712 5707 5703 5699 5696 5692 5687 5680 5676 5673
5796 5794 5792 5788 5785 5780 5776 5774 5770 5764 5758 5751 5746 5742 5737 5733 5729 5724 5720 5714 5708 5705 5700 5694 5687 5681 5678 5672 5666 5662 5652 5647
5791 5789 5786 5782 5778 5774 5770 5766 5759 5752 5747 5742 5738 5734 5729 5724 5719 5714 5708 5703 5696 5690 5684 5678 5671 5662 5656 5649 5643 5634 5626 5618
5785 5781 5778 5775 5772 5767 5761 5754 5748 5744 5739 5734 5728 5724 5719 5713 5707 5701 5694 5688 5681 5674 5668 5660 5652 5640 5632 5620 5613 5605 5595 5592
5779 5775 5772 5769 5763 5757 5752 5746 5741 5735 5729 5724 5718 5712 5705 5699 5694 5687 5680 5672 5664 5655 5646 5638 5627 5617 5606 5597 5585 5575 5566 5554
5773 5770 5765 5760 5754 5749 5744 5738 5733 5728 5722 5715 5708 5700 5693 5685 5677 5670 5663 5654 5645 5635 5625 5615 5604 5593 5583 5569 5558 5545 5532 5520
5765 5761 5756 5752 5747 5742 5736 5730 5724 5718 5711 5704 5696 5688 5680 5671 5663 5654 5645 5636 5626 5616 5606 5593 5581 5569 5554 5542 5527 5513 5502 5493
5758 5753 5749 5745 5740 5734 5727 5721 5714 5706 5698 5690 5681 5673 5665 5657 5649 5640 5631 5620 5609 5597 5583 5572 5558 5542 5527 5514 5501 5490 5482 5477
Wind_Speed
13 10 10 10 13 14 13 11 11 10 15 17 19 21 24 25 26 28 28 26 28 32 30 29 24 30 29 29 30 31 31 29
10 11 14 15 15 13 12 12 13 15 18 22 24 24 24 27 29 30 31 30 30 30 30 25 30 33 33 32 32 30 29 29
13 14 12 12 12 12 13 15 17 20 22 23 24 27 27 30 31 33 33 33 32 29 30 32 34 35 34 32 30 29 29 29
12 12 10 11 10 13 15 19 19 21 25 28 30 32 30 32 33 36 34 34 32 31 30 32 34 36 34 31 28 26 27 29
9 8 9 11 13 15 16 17 21 25 29 31 35 37 36 34 35 37 34 34 33 33 31 31 35 36 32 30 28 28 27 28
8 9 12 13 13 14 17 20 24 29 33 35 36 33 36 36 34 36 35 34 34 34 32 33 36 37 35 32 32 32 32 32
10 12 13 13 15 18 22 25 27 30 34 36 36 35 40 36 26 30 34 34 34 36 38 39 39 40 39 37 35 34 33 34
11 11 12 16 20 23 23 24 26 34 35 30 38 37 38 23 29 27 45 40 38 42 40 41 41 40 41 38 38 38 38 40
13 12 15 19 22 23 21 25 35 31 30 31 33 36 44 45 41 52 50 43 42 43 44 40 40 40 44 43 43 45 47 47
13 15 18 22 20 20 29 19 33 34 34 36 36 43 44 45 44 45 46 45 50 45 40 40 40 42 44 47 48 51 53 56
12 17 18 21 22 30 41 40 37 41 41 45 42 39 39 37 39 42 46 46 44 43 42 43 45 47 50 52 54 57 60 63
18 19 21 24 30 38 42 44 45 46 47 44 40 40 39 38 38 41 43 44 45 46 49 52 56 56 57 59 60 63 65 66
17 20 25 30 36 36 37 39 46 48 44 38 35 35 36 39 41 45 47 50 51 54 58 61 61 61 61 64 66 69 71 73
23 28 33 34 37 40 41 45 48 47 45 44 44 45 47 49 50 52 53 55 57 58 58 59 64 68 69 70 73 75 78 81
26 32 30 32 35 38 41 42 43 46 48 49 48 48 49 51 52 53 54 56 58 61 64 67 70 73 76 78 80 84 88 91
23 23 26 31 34 35 38 42 45 47 49 50 52 53 52 52 54 56 59 60 62 66 69 72 74 79 84 88 91 94 98 100
19 22 27 30 33 37 40 44 46 48 50 52 52 53 55 57 57 58 60 64 67 70 73 78 82 86 89 93 97 100 102 105
22 25 29 34 38 42 45 48 51 52 53 55 56 56 57 58 59 61 64 67 71 76 81 85 89 93 95 99 102 105 107 100
25 28 32 37 41 45 47 50 51 51 54 56 58 58 58 59 62 65 69 74 78 83 87 92 94 96 100 105 107 99 83 70
29 31 34 38 41 44 48 50 52 54 57 59 60 61 61 62 65 69 74 78 83 88 91 93 98 103 107 100 81 67 57 51
Wind_Direction
226 265 250 243 238 243 242 240 250 263 261 268 272 274 279 285 291 295 297 302 309 312 306 306 300 302 304 302 293 290 291 293
239 234 237 231 230 240 239 252 260 267 276 275 273 279 287 289 291 290 294 295 302 305 307 305 304 304 307 301 300 297 295 293
218 232 234 232 237 246 259 270 277 276 274 279 287 289 287 285 285 289 293 293 300 305 307 305 305 306 304 301 298 295 292 289
230 236 238 247 258 272 280 276 284 292 298 297 293 287 281 281 282 288 293 294 302 300 299 301 301 299 298 294 290 286 283 282
220 240 255 263 267 275 293 305 307 307 305 298 296 294 282 277 282 284 285 289 293 293 290 296 296 293 291 287 283 279 279 278
232 242 245 255 274 287 298 305 306 305 301 294 295 289 284 276 277 283 282 286 286 287 285 293 297 295 289 282 280 279 280 282
240 244 264 282 297 302 304 302 298 295 292 293 296 297 291 290 280 282 284 291 287 286 279 288 297 294 288 282 279 277 279 282
248 264 285 298 300 302 302 296 289 289 299 308 284 278 292 268 291 290 300 293 281 291 286 287 285 284 281 278 276 276 277 279
290 302 297 293 298 298 295 299 294 293 321 322 320 307 309 309 290 301 299 289 280 286 287 284 284 283 279 280 282 281 283 283
297 293 295 294 294 289 280 285 317 322 319 314 310 308 304 304 293 282 282 282 285 285 284 284 283 285 285 286 287 286 284 284
294 295 297 296 280 285 311 311 316 320 321 316 312 303 298 291 282 280 281 283 285 287 286 287 290 291 290 289 289 290 290 289
298 291 299 304 302 302 299 309 313 318 316 313 307 304 302 298 295 292 290 289 288 289 291 293 295 295 296 294 293 291 289 288
294 305 305 300 308 306 305 312 312 309 307 306 301 297 293 294 295 296 297 295 293 292 294 296 296 294 291 289 290 290 288 286
295 303 308 308 306 307 308 304 299 296 300 307 309 309 309 307 305 303 300 298 297 295 294 293 295 294 293 293 291 292 292 292
290 295 300 311 316 312 304 301 310 315 315 312 309 306 303 300 297 294 294 295 295 295 296 297 298 297 295 295 296 296 295 296
300 311 314 313 307 311 318 320 318 313 309 305 301 298 297 298 298 298 298 298 299 299 299 300 301 302 302 302 301 299 298 296
310 315 311 311 318 323 320 318 315 313 311 308 306 305 303 301 299 299 301 303 304 305 306 306 306 305 304 302 301 300 299 298
312 314 315 318 320 318 316 315 312 310 309 310 309 306 305 305 305 306 307 309 309 309 309 308 306 305 304 303 303 302 301 301
317 318 318 316 314 312 311 307 306 308 309 309 309 309 310 309 310 311 312 311 310 310 309 308 307 305 305 305 304 304 301 299
316 315 312 311 310 309 308 310 309 308 310 313 313 312 311 311 312 311 310 310 310 310 310 308 308 307 306 307 305 304 301 299